TIANLIAN 1-05

Last updated on Tue Sep 22 2026 00:03:15 GMT+0000 (Coordinated Universal Time)

1 49011U 21063A 26264.20731610 .00000105 00000+0 00000+0 0 9991 2 49011 1.8340 79.7110 0003617 141.1629 230.7060 1.00274158 19049
UTC large
Height (km)
Speed (km/s)
/
Latitude / Longitude
Inclination (degrees)
Orbital Period (minutes)
Azimuth
Elevation
Range (km)
Doppler Factor

Next 0 passes for location: London (51.5072 / 0.1276)

No passes found over London.
TIANLIAN 1-05